Regional Weather Roundup
Issued by NWS

Home | Current Version | Previous Version | Graphics & Text | Print | Product List | Glossary Off
Versions: 1 2 3 4 5 6 7 8 9 10 11 12 13 14 15 16 17 18 19 20 21 22 23 24 25 26 27 28 29 30 31 32 33 34 35 36 37 38 39 40 41 42 43 44 45 46 47 48 49 50

000
ASUS43 KMPX 242310
RWRMN
WEATHER ROUNDUP FOR MINNESOTA
NATIONAL WEATHER SERVICE TWIN CITIES/CHANHASSEN MN
600 PM CDT THU JUL 24 2014


NOTE: "FAIR" INDICATES FEW OR NO CLOUDS BELOW 12,000 FEET WITH NO
SIGNIFICANT WEATHER AND/OR OBSTRUCTIONS TO VISIBILITY. N/A MEANS
CURRENT SKY AND/OR WEATHER CONDITIONS ARE NOT AVAILABLE.

MNZ060>063-068>070-250000-
   Twin Cities Metro

CITY           SKY/WX    TMP DP  RH WIND       PRES   REMARKS
TWIN CITIES    CLOUDY    78  59  51 S23G47    29.81F
ST PAUL        CLOUDY    76  59  55 S31G40    29.78F
CRYSTAL        CLOUDY    78  58  49 SE13G24   29.83F
BLAINE         PTSUNNY   79  59  50 S14G23    29.87F
LAKEVILLE      DRIZZLE   73  61  64 S8        29.93S
EDEN PRAIRIE   CLOUDY    77  62  59 S22G30    29.82F
SOUTH ST PAUL  CLOUDY    77  58  51 S20G28    29.83F
LAKE ELMO      FAIR      73  61  64 SE12G25   29.87F
$$
MNZ001>005-007-008-013>017-022>024-027-028-250000-
   Northwest Minnesota

CITY           SKY/WX    TMP DP  RH WIND       PRES   REMARKS
BEMIDJI        SUNNY     75  55  50 S9        29.94R
HALLOCK        CLOUDY    75  64  69 SE5       29.89S
ROSEAU         CLOUDY    70  64  83 E5        29.92F
WARROAD        CLOUDY    70  64  83 SE5       29.94F
THIEF RVR FALL PTSUNNY   73  61  64 S6        29.92R
CROOKSTON      MOSUNNY   77  59  53 S13       29.89F
FOSSTON        SUNNY     79  57  47 S7        29.93S
DETROIT LAKES  SUNNY     73  59  60 SE5       29.92F
MOORHEAD       SUNNY     77  64  65 S13G18    29.87F
PARK RAPIDS    SUNNY     76  55  48 S12       29.92S
$$
MNZ006-009>011-018-025>026-250000-
   North Central Minnesota

CITY           SKY/WX    TMP DP  RH WIND       PRES   REMARKS
BAUDETTE       CLOUDY    72  61  68 VRB5      29.95R
FLAG ISLAND    PTSUNNY   72  55  56 CALM      29.92F
INTL FALLS     PTSUNNY   74  55  51 SW5       29.93S
WASKISH        DRIZZLE   70  63  78 CALM      29.94S
BIG FORK       CLOUDY    73  57  56 SW7       29.96R
LONGVILLE      PTSUNNY   75  57  53 SE10      29.92S
GRAND RAPIDS   CLOUDY    73  54  49 S8        29.94R
CRANE LAKE     MOSUNNY   72  54  53 S3        29.94F
ORR            PTSUNNY   72  55  56 CALM      29.91F
COOK           PTSUNNY   72  55  56 CALM      29.92F
$$
MNZ012-019>021-037-250000-
   Northeast Minnesota

CITY           SKY/WX    TMP DP  RH WIND       PRES   REMARKS
DULUTH         CLOUDY    72  57  59 SE7       29.94F
ELY            MOSUNNY   73  54  49 SW6       29.95S
HIBBING        CLOUDY    75  53  46 S7        29.92F
EVELETH        CLOUDY    72  54  53 S6        29.95F
DULUTH HARBOR  CLOUDY    64  55  72 NE7       29.94F
TWO HARBORS    PTSUNNY   70  55  60 E5        29.95F
SILVER BAY     PTSUNNY   68  55  64 SE5       29.95F
GRAND MARAIS     N/A     58  50  75 SW3       29.97F
G MARAIS ARPRT SUNNY     66  48  52 S6        30.01F
$$
MNZ029>031-032-039>041-046>048-054>057-064-250000-
   West Central Minnesota

CITY           SKY/WX    TMP DP  RH WIND       PRES   REMARKS
FERGUS FALLS   SUNNY     75  59  57 S20G26    29.88S
WHEATON        MOSUNNY   70  61  73 SE20G28   29.86F
MORRIS         SUNNY     72  63  73 S23       29.85F
ALEXANDRIA     MOSUNNY   73  63  70 S13       29.92S
ELBOW LAKE     FAIR      71  62  72 S22G31    29.88F
WADENA         SUNNY     73  59  60 SW6       29.92R
GLENWOOD       SUNNY     72  63  73 S17       29.90S
APPLETON       MOSUNNY   73  59  60 S16G28    29.86F
BENSON         SUNNY     73  63  68 SW23G33   29.88F
ORTONVILLE     PTSUNNY   72  61  68 S18G25    29.86F
MADISON        MOSUNNY   73  61  64 S21G29    29.87F
WILLMAR        FAIR      70  66  88 SW8G18    29.91F
$$
MNZ033>034-036-042>043-049>051-058-059-250000-
   Central Minnesota

CITY           SKY/WX    TMP DP  RH WIND       PRES   REMARKS
ST CLOUD       CLOUDY    80  58  46 S6        29.92R
SAUK CENTRE    MOCLDY    74  64  70 S13G18    29.93R
PAYNESVILLE    MOSUNNY   69  63  81 S16G26    29.90R
AITKIN         CLOUDY    79  57  47 SE12      29.90F
PINE RIVER     PTSUNNY   75  59  57 S8        29.95S
BRAINERD       PTSUNNY   76  56  49 S10       29.93R
STAPLES        MOSUNNY   75  55  50 S6        29.92S
LONG PRAIRIE   PTSUNNY   72  61  68 S8        29.93F
LITTLE FALLS   PTSUNNY   75  55  50 S12       29.93R
LITCHFIELD     CLOUDY    73  68  83 S8G18     29.89S
BUFFALO        CLOUDY    76  60  57 S9G22     29.89R
MAPLE LAKE     CLOUDY    77  64  65 SW12      29.91R
$$
MNZ037-044-045-052-053-250000-
   East Central Minnesota

CITY           SKY/WX    TMP DP  RH WIND       PRES   REMARKS
PRINCETON      CLOUDY    81  59  47 SE8       29.91R
MORA           CLOUDY    75  57  53 S6        29.93R
CAMBRIDGE      CLOUDY    79  61  53 SE6       29.90R
RUSH CITY      CLOUDY    76  61  60 CALM      29.91S
MOOSE LAKE     CLOUDY    73  55  53 SE3       29.91F
HINCKLEY       FAIR      77  59  53 SE6       29.92S
CLOQUET        CLOUDY    72  54  53 SE5       29.94F
MCGREGOR       CLOUDY    77  59  53 SE12      29.92F
$$
MNZ071>073-080-081-089-090-097-098-250000-
   Southwest Minnesota

CITY           SKY/WX    TMP DP  RH WIND       PRES   REMARKS
MONTEVIDEO     SUNNY     72  63  73 SW14G25   29.88F
GRANITE FALLS  MOSUNNY   72  61  69 SE18G28   29.91F
CANBY          MOSUNNY   71  62  73 S17G30    29.88F
MARSHALL       MOSUNNY   72  61  68 S29       29.89F
REDWOOD FALLS  PTSUNNY   73  62  68 S22       29.91F
OLIVIA         PTSUNNY   72  63  73 S15G23    29.90F
PIPESTONE      PTSUNNY   64  57  77 S21G29    29.90F
WINDOM         CLOUDY    68  63  83 S10G16    29.95F
WORTHINGTON    CLOUDY    64  57  77 SE13G22   29.96F
JACKSON        CLOUDY    66  61  82 SE5       29.99R
TRACY          CLOUDY    69  61  75 S15G29    29.91F
SLAYTON        CLOUDY    64  59  84 SE22G28   29.93F
$$
MNZ065>067-074>077-082>085-091>093-250000-
   South Central Minnesota

CITY           SKY/WX    TMP DP  RH WIND       PRES   REMARKS
MANKATO        CLOUDY    72  59  64 SW10G17   29.95R
NEW ULM        CLOUDY    72  64  78 S13       29.93F
ST JAMES       CLOUDY    70  63  78 S10       29.94F
FAIRMONT       CLOUDY    66  61  82 SE9       29.95F
GLENCOE        CLOUDY    74  63  67 S18G24    29.90F
FARIBAULT      CLOUDY    79  55  44 SW9       29.96F
OWATONNA       CLOUDY    75  59  57 S20G29    29.87F
WASECA         CLOUDY    72  54  53 S21G31    29.91F
ALBERT LEA     LGT RAIN  73  61  64 S15       29.98F
$$
MNZ078>079-086>088-094>096-250000-
   Southeast Minnesota

CITY           SKY/WX    TMP DP  RH WIND       PRES   REMARKS
ROCHESTER      CLOUDY    73  59  61 S8        30.04F
RED WING       CLOUDY    79  57  47 S10       29.93F
STANTON        LGT RAIN  76  59  55 S7        29.94F
DODGE CENTER   CLOUDY    72  61  68 S12       29.99F
WINONA         CLOUDY    77  57  50 S3        30.02F
AUSTIN         CLOUDY    73  59  60 SW10G16   30.05F
PRESTON        CLOUDY    73  64  72 SW7       30.07F
$$
ABBREVIATIONS USED IN REMARKS
   TC - TEMPERATURES IN CELSIUS
  WCI - WIND CHILL INDEX
   HX - HEAT INDEX
  VSB - VISIBILITY
$$



USA.gov is the U.S. government's official web portal to all federal, state and local government web resources and services.